Wind_Speed
12 13 13 14 15 15 15 15 15 15 15 15 15 15 16 17 18 19 20 20 21 21 21 21 21 21 21 21 22 22 22 22 22 22 22 21 21 22 22 22 22 23 24
13 14 14 15 16 16 17 17 17 17 18 18 18 18 19 20 21 21 22 22 23 23 23 23 23 23 23 23 23 23 24 24 24 24 24 24 24 24 24 24 24 24 24
14 15 16 17 18 18 18 19 19 20 20 20 20 21 21 22 23 23 24 24 25 25 25 25 25 25 25 25 25 25 25 25 26 26 26 26 26 26 26 26 26 26 26
15 16 18 19 19 20 21 21 22 22 22 23 23 23 24 24 25 25 25 26 26 27 27 27 28 27 27 27 27 28 28 27 27 27 28 28 28 28 28 28 28 28 28
16 18 19 20 21 22 23 24 24 24 24 24 25 25 25 26 26 27 27 28 28 28 29 29 29 29 29 29 29 29 29 29 30 30 30 30 31 30 30 30 29 30 29
18 19 20 21 22 23 24 24 25 26 26 26 27 27 27 27 28 28 29 28 29 30 30 31 31 31 31 31 31 32 32 32 32 32 32 33 33 33 33 33 32 31 31
19 20 21 21 22 24 24 25 26 26 27 27 28 28 28 28 29 30 31 31 31 32 32 33 33 33 33 33 33 33 34 35 35 35 35 35 35 35 35 35 35 34 34
22 22 23 23 23 24 24 24 26 27 28 29 30 30 30 31 32 33 33 33 33 34 34 35 35 35 35 36 36 36 36 37 37 38 38 37 38 38 38 38 37 37 36
26 25 26 27 28 28 28 27 28 29 29 30 31 31 32 33 34 35 35 36 36 36 36 37 37 38 38 39 39 39 39 40 40 41 40 40 39 40 40 40 40 39 38
29 29 30 31 31 31 31 31 31 32 31 32 33 33 34 35 35 36 38 39 39 39 39 39 40 41 41 42 43 43 42 43 44 44 44 43 42 42 43 43 43 43 42
33 33 33 33 34 33 32 33 34 35 35 35 36 36 36 37 37 38 39 40 41 41 42 42 42 43 44 45 46 46 46 47 47 47 46 46 46 46 46 46 46 46 46
35 35 35 34 34 35 36 37 38 38 39 39 38 38 40 40 41 40 41 42 43 44 44 45 46 47 48 48 49 50 50 50 50 50 50 49 50 49 49 49 48 48 47
35 37 37 36 35 35 36 37 38 39 39 39 40 40 41 42 42 42 42 43 45 46 47 48 49 49 50 51 52 53 53 54 54 54 53 53 53 52 52 51 50 49 48
36 35 35 36 36 37 38 38 39 39 39 39 40 41 41 42 43 44 44 45 47 48 49 50 52 52 54 55 55 56 56 56 57 57 56 55 54 53 52 51 50 50 49
33 33 34 35 35 35 36 38 38 38 39 40 42 42 42 44 45 46 47 48 50 51 53 55 56 56 57 57 58 58 58 58 58 57 56 55 54 53 52 51 50 50 49
33 33 34 34 35 35 35 36 37 37 39 41 42 44 45 46 47 48 50 52 53 55 57 57 58 59 59 59 59 59 58 58 57 56 56 55 54 53 52 51 50 49 48
33 34 34 35 35 36 37 38 39 40 41 42 44 45 47 48 49 51 52 54 56 57 59 59 60 60 60 60 59 58 58 57 56 55 55 54 53 52 51 50 50 49 48
34 35 36 37 38 39 40 41 42 43 43 45 46 48 50 51 52 54 55 56 57 58 59 59 59 59 58 58 57 56 56 55 54 53 52 51 50 49 48 47 46 46 46
35 36 37 37 38 40 41 42 44 45 47 48 49 51 53 54 55 56 57 57 58 57 57 57 56 56 55 54 53 52 52 50 49 48 47 45 44 44 44 44 43 43 44
37 38 39 40 41 42 43 45 46 47 48 50 51 53 54 55 56 57 57 57 56 55 54 53 52 50 49 48 47 46 45 44 43 42 41 40 40 41 41 41 40 40 40
39 40 41 42 43 44 45 47 48 49 51 52 53 54 55 55 55 54 54 53 52 50 49 48 46 45 44 44 42 41 41 39 38 38 37 36 36 36 36 36 37 37 37
40 41 43 44 46 47 48 49 49 50 51 52 52 52 52 52 51 50 48 47 46 45 44 43 42 41 41 39 38 37 36 36 35 34 33 32 32 32 31 31 31 32 33
43 44 46 47 47 47 48 48 49 49 49 49 49 49 48 47 46 45 44 43 42 41 40 39 38 37 36 35 35 34 32 31 30 30 30 30 29 28 29 29 30 29 29
46 46 46 46 47 46 46 46 46 46 46 46 45 44 43 42 41 40 39 38 37 36 35 35 34 34 33 32 31 29 28 28 28 28 27 27 27 27 26 26 26 26 26
45 45 45 44 44 44 43 43 42 42 42 42 40 39 38 37 36 34 33 33 32 31 31 31 31 30 29 27 26 26 26 25 25 25 24 24 24 24 23 23 23 24 24
44 43 42 42 41 40 39 39 39 39 38 37 35 34 32 32 31 30 29 29 28 27 27 27 27 26 25 24 23 23 22 22 22 21 21 20 20 20 21 21 21 22 22
Wind_Direction
236 237 239 242 244 245 246 250 255 260 263 267 271 276 281 284 287 289 292 294 296 298 300 303 304 304 304 305 305 306 306 306 306 305 304 302 300 299 297 295 292 291 289
244 244 246 248 249 250 251 256 260 265 268 271 275 278 281 283 286 288 290 293 295 296 296 298 299 299 300 301 302 303 303 303 303 303 303 301 299 298 297 295 293 290 289
252 253 255 255 254 253 254 259 263 267 271 274 277 280 281 282 285 287 288 291 294 295 295 295 295 296 297 298 299 299 299 299 300 300 301 300 298 296 295 294 292 291 290
259 259 260 260 260 258 258 261 264 268 271 274 278 280 282 283 284 285 287 290 292 294 294 294 294 294 295 296 297 297 296 297 297 298 298 298 297 295 294 292 291 290 290
263 264 263 264 264 265 264 264 264 267 272 274 277 279 281 283 284 286 288 289 290 291 293 293 293 293 293 293 294 295 295 295 296 296 297 296 296 295 293 292 290 289 288
267 266 266 267 267 267 269 269 270 271 272 274 276 278 280 282 283 284 286 287 288 289 291 291 291 292 292 292 292 293 294 294 294 294 295 294 294 294 293 292 291 289 288
272 271 269 272 272 271 271 271 271 273 275 275 276 277 279 281 282 284 284 285 286 287 288 288 288 289 289 290 291 292 292 293 293 293 293 294 293 292 292 291 290 289 289
275 275 276 275 275 275 274 273 273 275 275 276 276 278 280 281 282 283 283 284 286 286 286 286 287 288 288 289 290 291 291 292 292 292 291 291 291 291 291 290 289 289 288
277 276 278 277 277 277 277 275 275 277 277 278 278 279 279 281 282 282 282 284 285 286 286 286 286 287 288 289 290 291 291 291 291 290 290 289 289 289 289 289 289 288 287
278 279 280 281 280 280 281 278 278 279 279 281 281 282 281 281 282 282 282 283 284 284 284 285 285 287 287 288 289 289 289 289 289 289 289 288 288 287 287 287 287 286 285
279 279 281 281 280 280 281 280 280 280 280 280 280 281 282 282 281 282 283 284 285 285 285 286 286 287 287 288 288 288 288 288 288 288 288 287 287 286 285 285 285 285 284
278 279 280 281 280 280 281 282 282 282 281 280 281 281 282 281 281 282 283 284 284 285 286 286 287 287 288 288 288 288 288 288 288 288 287 286 285 285 284 283 282 282 282
278 279 279 279 280 281 284 284 284 284 282 281 282 282 281 281 282 284 285 285 286 286 287 287 287 287 287 288 288 288 288 288 288 287 287 286 284 284 283 282 281 280 279
279 279 279 280 281 284 285 285 285 284 282 283 283 284 284 285 286 286 286 287 287 287 288 288 288 288 288 288 288 288 288 288 287 287 286 285 284 283 282 281 280 279 278
281 281 282 282 283 285 285 283 284 284 284 284 285 286 287 287 288 288 289 289 289 289 290 290 290 289 289 289 288 288 287 287 286 285 284 283 282 281 280 279 278 277 276
282 283 283 284 285 287 287 287 287 288 288 289 288 288 289 289 290 291 291 291 291 291 291 291 291 290 289 289 288 288 287 286 284 283 283 282 280 279 278 277 276 275 275
284 284 285 286 287 287 287 288 289 289 289 290 289 289 290 291 291 291 291 291 291 291 291 292 291 291 290 289 288 287 286 285 284 283 282 281 280 278 276 275 274 273 272
284 285 286 287 288 289 289 289 290 290 290 290 290 291 291 291 292 292 292 292 292 292 292 292 292 291 290 289 288 287 286 285 283 282 281 280 278 277 276 274 272 270 269
289 288 289 290 290 291 291 291 291 291 292 292 292 292 293 293 293 293 293 293 293 293 293 293 293 292 291 290 289 287 286 284 283 283 281 279 276 275 273 271 269 268 268
290 290 290 290 291 291 292 292 292 293 293 293 294 295 295 295 295 294 294 294 294 294 294 293 293 292 291 290 289 287 286 285 283 282 280 278 276 274 272 270 268 266 266
292 292 293 292 292 293 294 294 294 295 295 295 296 296 296 296 295 295 295 295 295 295 295 294 293 293 292 291 290 288 286 284 283 282 279 278 276 275 273 271 268 266 265
295 296 297 297 297 296 296 296 296 296 297 297 296 296 296 296 296 296 296 295 295 296 295 295 295 294 293 292 291 289 287 285 282 280 278 277 276 275 272 270 268 266 263
296 296 296 297 296 296 296 295 296 296 297 297 296 296 296 296 296 296 296 295 295 296 295 295 296 295 293 291 290 290 289 286 283 281 279 276 274 273 272 271 269 268 265
297 296 296 296 296 296 296 296 297 297 298 298 298 298 298 298 298 297 297 297 297 296 296 296 297 296 294 292 291 289 288 287 286 282 279 276 272 271 271 271 268 265 265
297 297 297 297 297 297 297 297 298 298 299 299 299 299 299 299 299 299 299 299 299 298 298 298 299 299 296 293 291 289 288 287 287 284 280 276 273 270 269 268 266 266 267
299 298 298 297 297 297 298 298 299 300 300 301 301 300 300 300 300 299 300 301 301 300 299 300 302 301 298 295 292 290 290 290 288 286 282 277 273 270 269 267 268 270 269
Height
5850 5851 5853 5855 5856 5858 5860 5861 5862 5863 5863 5864 5864 5864 5864 5864 5864 5863 5863 5862 5861 5860 5859 5858 5856 5855 5853 5852 5850 5848 5847 5845 5844 5842 5841 5840 5838 5837 5836 5835 5834 5833 5832
5848 5849 5851 5852 5853 5854 5856 5857 5858 5858 5859 5859 5859 5859 5859 5859 5859 5858 5858 5857 5856 5855 5853 5852 5851 5850 5848 5846 5845 5843 5842 5840 5839 5837 5835 5834 5833 5831 5830 5829 5827 5826 5826
5845 5846 5847 5848 5849 5849 5851 5852 5853 5854 5854 5854 5854 5854 5854 5853 5853 5852 5852 5851 5850 5849 5848 5846 5845 5844 5842 5840 5839 5837 5836 5834 5832 5831 5829 5828 5826 5825 5824 5822 5821 5820 5818
5841 5842 5843 5844 5845 5845 5845 5846 5847 5848 5848 5848 5848 5848 5847 5847 5847 5846 5845 5844 5844 5842 5841 5840 5838 5837 5835 5834 5832 5830 5829 5827 5826 5824 5822 5821 5819 5818 5816 5815 5814 5812 5811
5837 5838 5839 5839 5840 5840 5840 5840 5841 5841 5841 5841 5841 5841 5841 5840 5839 5839 5838 5837 5836 5835 5834 5832 5831 5829 5828 5826 5825 5823 5822 5820 5818 5817 5815 5813 5811 5809 5808 5807 5805 5804 5803
5833 5833 5833 5834 5834 5834 5835 5834 5834 5834 5834 5834 5834 5834 5833 5832 5832 5831 5830 5829 5828 5827 5826 5825 5823 5821 5820 5818 5817 5815 5813 5812 5810 5808 5806 5804 5803 5801 5799 5797 5796 5795 5794
5827 5827 5827 5828 5828 5828 5827 5827 5827 5827 5827 5827 5826 5826 5825 5824 5824 5823 5821 5821 5820 5819 5817 5816 5814 5813 5811 5809 5808 5806 5804 5802 5801 5799 5797 5795 5793 5791 5789 5788 5786 5785 5784
5820 5821 5821 5821 5821 5820 5820 5820 5819 5819 5819 5818 5818 5817 5817 5816 5815 5814 5812 5812 5811 5810 5808 5806 5805 5803 5801 5799 5798 5796 5795 5793 5790 5788 5786 5784 5782 5780 5778 5777 5775 5774 5773
5812 5811 5813 5813 5812 5812 5811 5811 5811 5810 5809 5809 5809 5808 5808 5807 5805 5804 5803 5801 5801 5799 5798 5796 5794 5793 5791 5788 5787 5785 5783 5781 5779 5776 5775 5773 5771 5769 5767 5765 5764 5762 5761
5806 5805 5805 5804 5803 5803 5802 5801 5801 5801 5800 5799 5799 5798 5797 5796 5795 5793 5792 5791 5790 5788 5787 5785 5783 5781 5779 5777 5775 5773 5771 5769 5766 5764 5762 5761 5759 5757 5754 5752 5750 5749 5748
5798 5797 5797 5796 5795 5794 5793 5792 5792 5791 5790 5789 5789 5788 5787 5786 5783 5782 5781 5779 5778 5776 5775 5773 5771 5768 5766 5764 5762 5760 5757 5755 5752 5750 5748 5747 5745 5743 5741 5739 5736 5735 5733
5789 5789 5788 5787 5786 5785 5784 5783 5782 5780 5779 5778 5778 5777 5776 5774 5772 5770 5769 5767 5765 5763 5762 5760 5757 5755 5752 5750 5747 5745 5742 5739 5737 5735 5733 5732 5730 5728 5726 5724 5722 5720 5719
5780 5779 5779 5778 5776 5775 5774 5773 5772 5771 5769 5768 5766 5765 5763 5761 5759 5758 5756 5754 5752 5750 5748 5745 5743 5740 5737 5734 5732 5728 5725 5722 5720 5718 5716 5715 5712 5710 5708 5707 5705 5704 5703
5771 5770 5769 5768 5766 5765 5763 5763 5762 5760 5758 5757 5755 5753 5751 5748 5746 5744 5742 5740 5737 5735 5732 5730 5727 5724 5720 5718 5715 5711 5708 5705 5702 5699 5698 5696 5694 5692 5691 5689 5688 5687 5686
5761 5760 5759 5758 5756 5755 5753 5751 5750 5749 5747 5745 5743 5741 5738 5736 5733 5731 5728 5725 5722 5719 5716 5713 5710 5706 5703 5700 5696 5693 5689 5686 5683 5681 5678 5677 5675 5674 5673 5672 5670 5670 5669
5752 5750 5749 5748 5746 5744 5743 5741 5739 5737 5735 5733 5731 5728 5726 5723 5720 5717 5713 5710 5705 5702 5698 5695 5691 5687 5684 5680 5677 5673 5670 5667 5664 5661 5659 5657 5656 5655 5654 5653 5652 5652 5652
5742 5740 5739 5737 5735 5733 5732 5730 5728 5726 5723 5721 5718 5715 5712 5709 5705 5702 5698 5694 5689 5684 5680 5676 5672 5668 5664 5660 5656 5653 5650 5647 5644 5642 5640 5638 5637 5636 5635 5635 5635 5634 5635
5732 5730 5728 5726 5724 5722 5720 5717 5715 5713 5710 5707 5704 5701 5697 5694 5690 5686 5681 5677 5672 5667 5662 5657 5653 5649 5644 5640 5637 5633 5630 5627 5625 5622 5621 5619 5618 5617 5617 5617 5617 5617 5618
5721 5719 5717 5715 5712 5710 5708 5705 5702 5699 5696 5693 5689 5685 5681 5677 5673 5668 5663 5658 5654 5649 5644 5639 5634 5630 5625 5622 5618 5615 5611 5609 5607 5605 5603 5602 5601 5600 5600 5600 5601 5601 5602
5711 5708 5706 5703 5701 5698 5695 5692 5688 5685 5681 5677 5673 5669 5664 5660 5655 5650 5645 5640 5635 5631 5626 5621 5617 5612 5608 5604 5601 5598 5595 5593 5591 5589 5588 5587 5586 5585 5585 5585 5585 5586 5587
5699 5696 5694 5691 5688 5684 5681 5677 5673 5669 5665 5661 5656 5651 5646 5641 5637 5632 5627 5623 5618 5614 5609 5605 5601 5597 5593 5589 5586 5583 5581 5579 5577 5575 5574 5573 5572 5572 5571 5571 5572 5573 5573
5686 5683 5680 5677 5674 5671 5667 5663 5658 5654 5649 5645 5640 5635 5630 5625 5620 5616 5611 5607 5602 5598 5594 5590 5587 5583 5579 5576 5573 5570 5568 5566 5564 5563 5562 5561 5560 5560 5560 5560 5560 5561 5562
5674 5670 5667 5663 5660 5656 5652 5648 5644 5639 5634 5630 5625 5620 5615 5610 5605 5601 5597 5592 5589 5585 5581 5577 5574 5570 5567 5564 5561 5559 5556 5555 5553 5552 5551 5550 5550 5550 5550 5550 5550 5550 5551
5660 5656 5653 5649 5645 5641 5637 5633 5629 5624 5620 5615 5610 5606 5601 5596 5592 5588 5584 5580 5576 5573 5569 5566 5562 5559 5556 5553 5551 5548 5546 5545 5543 5542 5541 5540 5540 5540 5540 5541 5541 5542 5542
5646 5642 5638 5634 5630 5626 5623 5619 5615 5611 5606 5602 5598 5593 5589 5585 5581 5577 5573 5569 5566 5562 5559 5556 5552 5549 5547 5544 5542 5540 5538 5537 5535 5533 5533 5532 5532 5532 5532 5532 5533 5534 5534
5631 5628 5624 5620 5617 5613 5610 5606 5602 5599 5595 5591 5586 5582 5578 5575 5571 5567 5564 5560 5557 5554 5551 5547 5544 5541 5539 5536 5534 5532 5531 5529 5527 5526 5525 5524 5524 5524 5524 5525 5526 5526 5527